Regional Weather Roundup
Issued by NWS Albany, NY

Home | Current Version | Previous Version | Graphics & Text | Print | Product List | Glossary Off
Versions: 1 2 3 4 5 6 7 8 9 10 11 12 13 14 15 16 17 18 19 20 21 22 23 24 25 26 27 28 29 30 31 32 33 34 35 36 37 38 39 40 41 42 43 44 45 46 47 48 49 50

000
ASUS41 KALY 200710
RWRALY

NEW YORK STATE HOURLY WEATHER ROUNDUP
NATIONAL WEATHER SERVICE ALBANY NY
300 AM EDT SAT SEP 20 2014

NOTE: "FAIR" INDICATES FEW OR NO CLOUDS BELOW 12,000 FEET WITH NO
SIGNIFICANT WEATHER AND/OR NO OBSTRUCTIONS TO VISIBILITY.

NYZ032-033-038>043-046>054-057>066-NYZ062>081-200800-
EAST


CITY           SKY/WX    TMP DP  RH WIND       PRES   REMARKS
ALBANY         PTCLDY    52  43  71 S10       30.29F
GLENS FALLS    CLOUDY    43  40  89 CALM      30.30R
POUGHKEEPSIE   MOCLDY    51  46  83 CALM      30.33S
NEWBURGH       MOCLDY    52  48  87 VRB6      30.34S
MONTGOMERY     CLOUDY    49  47  93 CALM      30.33S
WHITE PLAINS   PTCLDY    51  47  86 CALM      30.33S
ISLIP          CLEAR     51  46  83 NE3       30.31F
NEW YORK CITY  MOCLDY    59  49  69 E3        30.32S
CENTRAL PARK   PTCLDY    59  49  69 CALM      30.35S
$$

NYZ005>009-017-018-044>046-055-056-200800-
CENTRAL


CITY           SKY/WX    TMP DP  RH WIND       PRES   REMARKS
FULTON         MOCLDY    55  48  77 VRB5      30.15F
SYRACUSE       MOCLDY    60  50  69 S6        30.17F
ROME           MOCLDY    51  46  83 E9        30.23F
ELMIRA         CLOUDY    61  54  77 S6        30.20S
BINGHAMTON     CLOUDY    54  50  86 S9        30.25R
MONTICELLO     CLOUDY    48  46  93 E5        30.33F
$$

NYZ026>034-041>043-200800-
NORTH


CITY           SKY/WX    TMP DP  RH WIND       PRES   REMARKS
WATERTOWN      MOCLDY    59  47  64 S14G24    30.12R
FORT DRUM      NOT AVBL
MASSENA        MOCLDY    39  38  96 CALM      30.13F
SARANAC LAKE   PTCLDY    43  39  86 SW5       30.17F
PLATTSBURGH    CLEAR     37  36  96 CALM      30.21F
$$

NYZ001>004-010>016-019>021-200800-
WEST


CITY           SKY/WX    TMP DP  RH WIND       PRES   REMARKS
NIAGARA FALLS  PTCLDY    61  54  77 S10       30.05F
BUFFALO        MOCLDY    62  53  72 S15       30.07F
DUNKIRK        PTCLDY    62  53  72 S21G36    30.07F
JAMESTOWN      MOCLDY    57  52  82 S9        30.13F
WELLSVILLE     CLOUDY    58  52  80 S13G26    30.18F
ROCHESTER      PTCLDY    60  52  74 S12       30.09F
PENN YAN       PTCLDY    60  52  74 S13       30.15F
$$

             KEY
       WCI = WIND CHILL INDEX
       VSB = VISIBILITY
       HX  = HEAT INDEX
$$


USA.gov is the U.S. government's official web portal to all federal, state and local government web resources and services.